Flag for Australia Weather past 2 weeks in Perth, Western Australia, Australia

Now
45 °F

Passing clouds.


Feels Like: 45 °F
Forecast: 50 / 76 °F
Wind: 1 mph from Northeast

Location: Belmont Perth Airport

Current Time: Oct 21, 2014 at 5:20:23 AM

Latest Report: Oct 21, 2014 at 5:00 AM


Visibility: N/A

Pressure: 30.15 "Hg

Humidity: 100%

Dew point: 45 °F

Location of PerthLocation

Historic Weather in Perth — Graph

°F

Perth temperature yesterday

Maximum temperature yesterday: 70 °F (at 2:00 PM)
Minimum temperature yesterday: 50 °F (at 5:30 AM)
Average temperature yesterday: 60 °F

Past Weeks' High & Low Weather Summary

 TemperatureHumidityPressure
High95 °F (Oct 15, 2:00 PM)100% (Oct 7, 2:00 AM)30.24 "Hg (Oct 7, 2:00 AM)
Low41 °F (Oct 7, 4:30 AM)13% (Oct 14, 1:30 PM)29.71 "Hg (Oct 16, 3:00 AM)
Average63 °F62%30.04 "Hg
* Reported Oct 6 4:00 AM — Oct 21 4:00 AM, Perth, Weather by CustomWeather, © 2014

Note: Actual official high and low records may vary slightly from our data, if they occured in-between our weather recording intervals... More about our weather records

Advertising

Perth weather history for previous 24 hours

 ConditionsComfort  
Time TempWeatherWind HumidityBarometerVisibility
4:00 AM
Oct 21
46 °FClear.2 mph100%30.12 "Hg10 mi
3:30 AM48 °FClear.5 mph94%30.12 "Hg10 mi
3:00 AM50 °FClear.6 mph94%30.12 "Hg10 mi
2:30 AM48 °FClear.5 mph94%30.12 "Hg10 mi
2:00 AM48 °FClear.6 mph94%30.12 "Hg10 mi
1:30 AM48 °FClear.5 mph94%30.12 "Hg10 mi
1:00 AM48 °FClear.5 mph100%30.12 "Hg10 mi
12:30 AM50 °FClear.5 mph94%30.12 "Hg10 mi
12:00 AM50 °FClear.3 mph94%30.12 "Hg10 mi
11:30 PM
Oct 20
50 °FClear.No wind94%30.12 "Hg10 mi
11:00 PM52 °FClear.5 mph94%30.12 "Hg10 mi
10:30 PM54 °FPassing clouds.6 mph94%30.12 "HgN/A
10:00 PM57 °FClear.7 mph82%30.12 "Hg10 mi
9:30 PM59 °FPassing clouds.7 mph77%30.12 "HgN/A
9:00 PM59 °FPassing clouds.9 mph77%30.15 "HgN/A
8:30 PM61 °FPassing clouds.9 mph72%30.12 "HgN/A
8:00 PM61 °FPassing clouds.10 mph72%30.12 "HgN/A
7:30 PM63 °FPartly cloudy.10 mph68%30.12 "HgN/A
7:00 PM63 °FPassing clouds.12 mph68%30.12 "HgN/A
6:30 PM64 °FPassing clouds.14 mph64%30.12 "HgN/A
6:00 PM64 °FPassing clouds.15 mph64%30.09 "HgN/A
5:30 PM66 °FScattered clouds.16 mph60%30.09 "HgN/A
5:00 PM68 °FScattered clouds.17 mph53%30.09 "HgN/A
4:30 PM68 °FPartly sunny.16 mph56%30.09 "HgN/A
4:00 PM68 °FScattered clouds.16 mph53%30.07 "HgN/A
3:00 PM70 °FPartly sunny.16 mph53%30.07 "HgN/A
2:30 PM70 °FBroken clouds.17 mph50%30.07 "HgN/A
2:00 PM70 °FScattered clouds.16 mph50%30.07 "HgN/A
1:30 PM68 °FScattered clouds.17 mph53%30.07 "HgN/A
1:00 PM66 °FSprinkles. Partly sunny.16 mph60%30.07 "HgN/A
11:00 AM64 °FPartly sunny.13 mph64%30.07 "HgN/A
10:30 AM66 °FPartly sunny.12 mph60%30.07 "HgN/A
10:00 AM64 °FPartly sunny.13 mph60%30.07 "HgN/A
9:30 AM64 °FPartly sunny.9 mph60%30.07 "HgN/A
9:00 AM64 °FPartly sunny.12 mph64%30.07 "HgN/A
8:30 AM63 °FScattered clouds.9 mph64%30.07 "HgN/A
8:00 AM61 °FScattered clouds.7 mph68%30.07 "HgN/A
7:30 AM59 °FPassing clouds.5 mph72%30.07 "HgN/A
7:00 AM57 °FPartly sunny.6 mph77%30.04 "HgN/A
6:30 AM54 °FPassing clouds.No wind88%30.04 "HgN/A
6:00 AM50 °FPassing clouds.5 mph94%30.01 "HgN/A
5:30 AM50 °FPassing clouds.5 mph94%30.01 "HgN/A
5:00 AM54 °FPassing clouds.7 mph82%30.01 "HgN/A
Weather by CustomWeather, © 2014

See weather overviewHow to use our weather pages